AWG6001 LRTR-LROP

Flight info

Callsign AWG6001
Flight time N/A
Altitude 39000
Route DITAX DCT LAMIT DCT TOSVI
Aircraft A320/M-SDE3FGHIRWY/LB1

Departure

Time 2026-04-24 16:39
Airport Timișoara Traian Vuia International Airport (LRTR)

Arrival

Time N/A
Airport Bucharest Henri Coandă International Airport (LROP)
Time Latitude Longitude Altitude Speed Heading
2026-04-24 16:25 45.81017 21.32280 342 ft 0 kts 200°
2026-04-24 16:30 45.81022 21.32283 342 ft 2 kts 200°
2026-04-24 16:31 45.81038 21.32291 342 ft 2 kts 200°
2026-04-24 16:31 45.81053 21.32299 342 ft 2 kts 193°
2026-04-24 16:31 45.81069 21.32297 342 ft 2 kts 128°
2026-04-24 16:31 45.81074 21.32284 342 ft 0 kts 102°
2026-04-24 16:33 45.81074 21.32289 342 ft 2 kts 102°
2026-04-24 16:33 45.81059 21.32366 342 ft 8 kts 110°
2026-04-24 16:34 45.81064 21.32450 342 ft 10 kts 36°
2026-04-24 16:34 45.81084 21.32534 353 ft 12 kts 104°
2026-04-24 16:34 45.81050 21.32679 347 ft 16 kts 109°
2026-04-24 16:34 45.81012 21.32829 345 ft 16 kts 110°
2026-04-24 16:35 45.80973 21.32983 343 ft 19 kts 109°
2026-04-24 16:35 45.80920 21.33192 345 ft 21 kts 110°
2026-04-24 16:35 45.80871 21.33389 345 ft 18 kts 109°
2026-04-24 16:35 45.80892 21.33523 348 ft 15 kts 34°
2026-04-24 16:36 45.80993 21.33596 346 ft 17 kts 57°
2026-04-24 16:36 45.80986 21.33770 343 ft 20 kts 109°
2026-04-24 16:36 45.80927 21.34014 347 ft 30 kts 110°
2026-04-24 16:36 45.80851 21.34315 339 ft 34 kts 110°
2026-04-24 16:37 45.80766 21.34648 348 ft 37 kts 110°
2026-04-24 16:37 45.80676 21.35003 350 ft 37 kts 110°
2026-04-24 16:37 45.80620 21.35229 348 ft 34 kts 109°
2026-04-24 16:37 45.80519 21.35631 348 ft 30 kts 110°
2026-04-24 16:38 45.80505 21.35824 342 ft 15 kts 88°
2026-04-24 16:38 45.80475 21.35873 351 ft 5 kts 208°
2026-04-24 16:38 45.80474 21.35817 342 ft 12 kts 287°
2026-04-24 16:38 45.80540 21.35548 346 ft 65 kts 293°
2026-04-24 16:39 45.80795 21.34532 345 ft 147 kts 289°
2026-04-24 16:39 45.81168 21.33019 927 ft 173 kts 289°
2026-04-24 16:39 45.81594 21.31296 1712 ft 193 kts 290°
2026-04-24 16:39 45.82064 21.29424 2585 ft 204 kts 291°
2026-04-24 16:40 45.82557 21.27483 3647 ft 208 kts 291°
2026-04-24 16:40 45.83053 21.25526 4801 ft 210 kts 291°
2026-04-24 16:40 45.83551 21.23541 5860 ft 214 kts 290°
2026-04-24 16:40 45.83936 21.21424 6705 ft 231 kts 274°
2026-04-24 16:41 45.83519 21.19126 7462 ft 252 kts 240°
2026-04-24 16:41 45.82162 21.17464 8446 ft 270 kts 207°
2026-04-24 16:41 45.80255 21.16763 9230 ft 294 kts 192°
2026-04-24 16:41 45.78180 21.16398 10196 ft 307 kts 187°
2026-04-24 16:42 45.75959 21.16144 10800 ft 331 kts 186°
2026-04-24 16:42 45.73618 21.15913 11689 ft 342 kts 186°
2026-04-24 16:42 45.71223 21.15667 12716 ft 348 kts 186°
2026-04-24 16:42 45.68782 21.15767 13731 ft 356 kts 171°
2026-04-24 16:43 45.66412 21.16872 14619 ft 362 kts 152°
2026-04-24 16:43 45.64357 21.18945 15527 ft 364 kts 133°
2026-04-24 16:43 45.62830 21.21809 16421 ft 364 kts 115°
2026-04-24 16:43 45.61886 21.25155 17344 ft 364 kts 106°
2026-04-24 16:44 45.61035 21.28574 18284 ft 367 kts 105°
2026-04-24 16:44 45.60175 21.32032 19079 ft 371 kts 105°
2026-04-24 16:44 45.59302 21.35524 19869 ft 376 kts 105°
2026-04-24 16:44 45.58717 21.37857 20384 ft 379 kts 105°
2026-04-24 16:45 45.57820 21.41408 21175 ft 383 kts 105°
2026-04-24 16:45 45.56611 21.46172 22209 ft 388 kts 105°
2026-04-24 16:45 45.55688 21.49812 22981 ft 392 kts 105°
2026-04-24 16:45 45.54753 21.53487 23730 ft 397 kts 105°
2026-04-24 16:46 45.54112 21.55999 24183 ft 399 kts 105°
2026-04-24 16:46 45.52850 21.60952 25082 ft 403 kts 105°
2026-04-24 16:46 45.52203 21.63491 25533 ft 405 kts 105°
2026-04-24 16:46 45.51236 21.67276 26198 ft 408 kts 105°
2026-04-24 16:47 45.50259 21.71082 26819 ft 410 kts 105°
2026-04-24 16:47 45.49274 21.74916 27447 ft 413 kts 105°
2026-04-24 16:47 45.48281 21.78776 28060 ft 416 kts 105°
2026-04-24 16:47 45.47282 21.82658 28669 ft 418 kts 105°
2026-04-24 16:48 45.46339 21.86585 29252 ft 418 kts 100°
2026-04-24 16:48 45.45788 21.90630 29829 ft 415 kts 91°
2026-04-24 16:48 45.45689 21.94725 30337 ft 413 kts 83°
2026-04-24 16:48 45.45824 21.98820 30795 ft 416 kts 82°
2026-04-24 16:49 45.45960 22.02947 31235 ft 418 kts 82°
2026-04-24 16:49 45.46094 22.07091 31791 ft 418 kts 82°
2026-04-24 16:49 45.46222 22.11220 32424 ft 417 kts 82°
2026-04-24 16:49 45.46345 22.15333 33056 ft 415 kts 82°
2026-04-24 16:50 45.46425 22.18051 33470 ft 415 kts 82°
2026-04-24 16:50 45.46585 22.23529 34251 ft 413 kts 82°
2026-04-24 16:50 45.46703 22.27622 34747 ft 413 kts 83°
2026-04-24 16:50 45.46572 22.31731 35238 ft 419 kts 92°
2026-04-24 16:51 45.45947 22.35817 35688 ft 426 kts 102°
2026-04-24 16:51 45.44819 22.39753 36130 ft 432 kts 111°
2026-04-24 16:51 45.43481 22.43584 36572 ft 432 kts 111°
2026-04-24 16:51 45.42147 22.47418 37042 ft 432 kts 111°
2026-04-24 16:52 45.40815 22.51248 37512 ft 432 kts 111°
2026-04-24 16:52 45.39484 22.55072 37974 ft 431 kts 112°
2026-04-24 16:52 45.38154 22.58893 38414 ft 431 kts 112°
2026-04-24 16:52 45.36827 22.62705 38788 ft 430 kts 112°
2026-04-24 16:53 45.35498 22.66521 38961 ft 430 kts 112°
2026-04-24 16:53 45.34167 22.70340 38997 ft 431 kts 112°
2026-04-24 16:53 45.31494 22.77974 38993 ft 431 kts 112°
2026-04-24 16:54 45.28817 22.85598 38976 ft 432 kts 112°
2026-04-24 16:54 45.26130 22.93224 38976 ft 432 kts 112°
2026-04-24 16:55 45.23438 23.00839 38969 ft 432 kts 112°
2026-04-24 16:55 45.20741 23.08446 38968 ft 432 kts 112°
2026-04-24 16:56 45.18061 23.15980 38959 ft 431 kts 112°
2026-04-24 16:56 45.15361 23.23568 38961 ft 431 kts 112°
2026-04-24 16:57 45.12659 23.31137 38964 ft 431 kts 112°
2026-04-24 16:57 45.10161 23.38816 38962 ft 426 kts 103°
2026-04-24 16:58 45.08627 23.46869 38958 ft 424 kts 100°
2026-04-24 16:58 45.07100 23.54979 38958 ft 424 kts 100°
2026-04-24 16:59 45.05587 23.62986 38926 ft 425 kts 100°
2026-04-24 16:59 45.04040 23.71154 37557 ft 426 kts 100°
2026-04-24 17:00 45.03269 23.75167 37081 ft 421 kts 100°
2026-04-24 17:00 45.01751 23.83064 36055 ft 413 kts 99°
2026-04-24 17:00 45.01001 23.86964 35527 ft 410 kts 99°
2026-04-24 17:01 44.99520 23.94684 34436 ft 405 kts 99°
2026-04-24 17:01 44.98782 23.98525 33898 ft 404 kts 99°
2026-04-24 17:02 44.97313 24.06130 32758 ft 398 kts 99°
2026-04-24 17:02 44.96584 24.09887 32219 ft 395 kts 99°
2026-04-24 17:02 44.95860 24.13614 31715 ft 392 kts 99°
2026-04-24 17:02 44.95139 24.17315 31190 ft 390 kts 99°
2026-04-24 17:03 44.93709 24.24648 30190 ft 385 kts 99°
2026-04-24 17:03 44.92999 24.28288 29665 ft 383 kts 99°
2026-04-24 17:03 44.92505 24.31896 29508 ft 366 kts 93°
2026-04-24 17:04 44.92113 24.35382 29431 ft 354 kts 93°
2026-04-24 17:04 44.91381 24.42285 29258 ft 356 kts 92°
2026-04-24 17:04 44.91021 24.45742 29172 ft 356 kts 92°
2026-04-24 17:05 44.90656 24.49239 28965 ft 370 kts 92°
2026-04-24 17:05 44.90275 24.52884 28682 ft 379 kts 93°
2026-04-24 17:05 44.89473 24.60269 28144 ft 381 kts 94°
2026-04-24 17:06 44.89063 24.63956 27875 ft 380 kts 94°
2026-04-24 17:06 44.88250 24.71290 27341 ft 377 kts 93°
2026-04-24 17:06 44.87848 24.74938 27100 ft 376 kts 93°
2026-04-24 17:07 44.87582 24.77350 26934 ft 376 kts 93°
2026-04-24 17:07 44.87048 24.82215 26582 ft 374 kts 93°
2026-04-24 17:07 44.86251 24.89436 26077 ft 372 kts 93°
2026-04-24 17:08 44.85449 24.96607 25573 ft 369 kts 93°
2026-04-24 17:08 44.85048 25.00178 25324 ft 368 kts 93°
2026-04-24 17:08 44.84649 25.03737 25087 ft 367 kts 93°
2026-04-24 17:09 44.83850 25.10807 24619 ft 364 kts 92°
2026-04-24 17:09 44.83052 25.17822 24146 ft 362 kts 93°
2026-04-24 17:10 44.82656 25.21312 23915 ft 360 kts 93°
2026-04-24 17:10 44.81472 25.31676 23170 ft 357 kts 93°
2026-04-24 17:11 44.80281 25.41966 21701 ft 352 kts 93°
2026-04-24 17:12 44.78312 25.58770 19216 ft 345 kts 94°